Orbital Elements at Epoch 2459200.5 (2020-Dec-17.0) TDB
Reference: JPL 24 (heliocentric ecliptic J2000)
Element | Value | Uncertainty (1-sigma) | Units |
e | .1821988306400839 | 4.0159e-08 | |
a | 2.27892634476919 | 6.214e-09 | au |
q | 1.863708629637363 | 9.1184e-08 | au |
i | 4.561986700761168 | 3.9232e-06 | deg |
node | 142.7037691380091 | 4.4361e-05 | deg |
peri | 236.4812533668648 | 4.5277e-05 | deg |
M | 226.9252008437358 | 8.352e-06 | deg |
tp | 2459665.001562163840 (2022-Mar-26.50156216) | 2.9583e-05 | TDB |
period | 1256.590755268563 3.44 | 5.1395e-06 1.407e-08 | d yr |
n | .286489454494721 | 1.1718e-09 | deg/d |
Q | 2.694144059901017 | 7.3461e-09 | au |
|
| | Orbit Determination Parameters
Additional Information
|